RSP-01 (47925 NORAD) Tracking and Keplerian Element Data

This shows tracking and keplerian element data for the satellite.

Feedback or suggestion? Click here.




ElementValue
Catalog47925
NameRSP-01
Epoch Orbit1508
Epoch Day170.42924978
Epoch Year2021
RAAN330.4024
Inclination51.6433
Eccentricity0.0002046
Argument of Perigee54.4411
Mean Anonmoly305.6769
Mean Motion15.51641257
Decay Rate8.823E-05
L11 47925U 98067SB 21170.42924978 .00008823 00000-0 15332-3 0 9991
L22 47925 51.6433 330.4024 0002046 54.4411 305.6769 15.51641257 15085

Live tracking and technical data element details for RSP-01 (NORAD 47925). RSP-01 can be tracked NOW for your location showing map with azimuth and elevation plus other details from your city location.

Track the satellite on the map from your city or location and see movement details for azimuth, elevation, latitude, longitude, range, height, and movement on the map or in text.







IsCatalogInMostPopularTable: catalog: 47925, numindb: 41
Update: records affected: 1



GetName: 47925 RSP-01

Hit Count: updated at: Mon, 21 Jun 2021 03:49:23 GMT